Regional Weather Roundup
Issued by NWS Northern Indiana

Home | Current Version | Previous Version | Graphics & Text | Print | Product List | Glossary On
Versions: 1 2 3 4 5 6 7 8 9 10 11 12 13 14 15 16 17 18 19 20 21 22 23 24 25 26 27 28 29 30 31 32 33 34 35 36 37 38 39 40 41 42 43 44 45 46 47 48 49 50
000
ASUS43 KIWX 070800
RWRIWX

KIWX WEATHER ROUNDUP
NATIONAL WEATHER SERVICE NORTHERN INDIANA
400 AM EDT TUE JUL 07 2015

NOTE: "FAIR" INDICATES FEW OR NO CLOUDS BELOW 12,000 FEET WITH NO
SIGNIFICANT WEATHER AND/OR OBSTRUCTIONS TO VISIBILITY.

* THESE STATIONS ARE NOT UNDER NWS QUALITY CONTROL. THEY ALSO MAY NOT
  REPORT WEATHER SUCH AS PRECIPITATION OR FOG.

INZ001>027-070900-
NORTHERN INDIANA

CITY           SKY/WX    TMP DP  RH WIND       PRES   REMARKS
SOUTH BEND     LGT RAIN  76  72  87 SW10      29.87S FOG
GOSHEN         CLOUDY    76  70  82 SW13      29.87F
ANGOLA*          N/A     75  70  83 SW8       29.89S
FORT WAYNE     CLOUDY    74  70  87 SW10      29.91F
PERU/GRISSOM   CLOUDY    75  72  90 SW9       29.90S

$$
INZ028>050-070900-
CENTRAL INDIANA

CITY           SKY/WX    TMP DP  RH WIND       PRES   REMARKS
LAFAYETTE      MOCLDY    75  72  90 SW8G16    29.89S
KOKOMO*        CLOUDY    75  70  83 SW10      29.92R
MUNCIE*        CLOUDY    76  71  85 SW12G17   29.94S
INDIANAPOLIS   CLOUDY    76  70  82 SW10      29.93R

$$
MIZ043>046-050>051-056>058-064>065-071>073-077>080-070900-
SOUTHWEST LOWER MICHIGAN

CITY           SKY/WX    TMP DP  RH WIND       PRES   REMARKS
BATTLE CREEK   CLOUDY    76  70  82 S12       29.85F
BENTON HARBOR  LGT RAIN  71  69  93 CALM      29.85F
COLDWATER*     CLOUDY    74  68  80 SW7       29.88S
HILLSDALE*     CLOUDY    73  71  92 S8        29.90S FOG
HOLLAND        CLOUDY    73  66  78 SW8       29.83F
GRAND RAPIDS   CLOUDY    72  68  87 SW7       29.83F
KALAMAZOO      RAIN      77  70  79 W12       29.86S
STURGIS*       CLOUDY    73  72  94 S8        29.87S
THREE RIVERS*  MOCLDY    76  70  82 SW8       29.86F

$$
OHZ001>008-015>018-024>025-070900-
NORTHWEST OHIO

CITY           SKY/WX    TMP DP  RH WIND       PRES   REMARKS
DEFIANCE       CLOUDY    75  69  81 S9        29.90S
FINDLAY        MOCLDY    70  66  87 S8        29.92F FOG
TOLEDO EXPRESS CLOUDY    72  66  81 S7        29.89F
TOLEDO METCALF MOCLDY    73  65  75 S9        29.91F
LIMA           MOCLDY    71  67  87 S8        29.94S FOG

$$
AND FOR LAKE MICHIGAN COASTAL AND OPEN LAKE BUOY OBSERVATIONS

STATION/POSITION TEMP    WIND        PRES    VSBY  WAVE
                 AIR SEA DIR/SP/G                  HT/PER
                 (F)     (DEG/KT/KT) (MB)    (MI)  (FT/S)
CALUMET HARBOR    72     180/  4/  6   N/A
MICHIGAN CITY     69     240/  4/  7   N/A
BURNS HARBOR      71     250/  7/ 10 1011.9R
SAINT JOSEPH      69     170/  4/  6 1011.9F
4 MI NW BRIDGMAN  68 66  300/  4/  6   N/A           1/ 3
MICHIGAN CITY     69 68  300/  6/  8   N/A           1/ 2

$$
&&



USA.gov is the U.S. government's official web portal to all federal, state and local government web resources and services.